Regional Weather Roundup
Issued by NWS Albany, NY

Home | Current Version | Previous Version | Text Only | Print | Product List | Glossary On
Versions: 1 2 3 4 5 6 7 8 9 10 11 12 13 14 15 16 17 18 19 20 21 22 23 24 25 26 27 28 29 30 31 32 33 34 35 36 37 38 39 40 41 42 43 44 45 46 47 48 49 50
000
ASUS41 KALY 260610
RWRALY

NEW YORK STATE HOURLY WEATHER ROUNDUP
NATIONAL WEATHER SERVICE ALBANY NY
200 AM EDT TUE MAY 26 2015

NOTE: "FAIR" INDICATES FEW OR NO CLOUDS BELOW 12,000 FEET WITH NO
SIGNIFICANT WEATHER AND/OR NO OBSTRUCTIONS TO VISIBILITY.

NYZ032-033-038>043-046>054-057>066-NYZ062>081-260700-
EAST


CITY           SKY/WX    TMP DP  RH WIND       PRES   REMARKS
ALBANY         MOCLDY    75  57  53 S10       30.07S
GLENS FALLS    CLOUDY    73  57  57 S8        30.04S
POUGHKEEPSIE   PTCLDY    73  58  59 VRB3      30.13F
MONTGOMERY     CLEAR     69  60  73 SW7       30.15R
WHITE PLAINS   CLEAR     68  57  68 VRB5      30.17F
ISLIP          CLEAR     62  55  77 SW13      30.19F
NEW YORK CITY  PTCLDY    70  52  52 S13       30.18S
CENTRAL PARK   CLEAR     71  53  52 SW8G18    30.20F
$$

NYZ005>009-017-018-044>046-055-056-260700-
CENTRAL


CITY           SKY/WX    TMP DP  RH WIND       PRES   REMARKS
FULTON         CLOUDY    68  65  90 S3        30.03F FOG
SYRACUSE       CLOUDY    74  60  61 SW3       30.04S
ROME           CLOUDY    75  57  53 W9        30.07R
ELMIRA         MOCLDY    74  59  59 SW6       30.09R
BINGHAMTON     MOCLDY    69  57  65 SW15G22   30.14R
MONTICELLO     CLEAR     64  57  77 S3        30.20R
$$

NYZ026>034-041>043-260700-
NORTH


CITY           SKY/WX    TMP DP  RH WIND       PRES   REMARKS
WATERTOWN      MOCLDY    68  65  90 SW12      30.00S
FORT DRUM      NOT AVBL
MASSENA        CLEAR     67  63  87 S12       29.94S
SARANAC LAKE   MOCLDY    62  60  93 SW5       30.03R
PLATTSBURGH    CLOUDY    59  58  96 SE3       29.97R
$$

NYZ001>004-010>016-019>021-260700-
WEST


CITY           SKY/WX    TMP DP  RH WIND       PRES   REMARKS
NIAGARA FALLS  PTCLDY    64  58  80 SW10      30.03R
BUFFALO        PTCLDY    67  61  81 SW10      30.04R
DUNKIRK        CLEAR     71  62  73 SW10G22   30.06R
JAMESTOWN      PTCLDY    70  57  64 SW9G16    30.13S
WELLSVILLE     MOCLDY    71  58  63 SW8G18    30.16R
ROCHESTER      PTCLDY    67  65  93 SW7       30.04R
PENN YAN       MOCLDY    73  58  59 S9        30.07R
$$

             KEY
       WCI = WIND CHILL INDEX
       VSB = VISIBILITY
       HX  = HEAT INDEX
$$



USA.gov is the U.S. government's official web portal to all federal, state and local government web resources and services.